DLH3509 EDDN-EDDF

Flight info

Callsign DLH3509
Flight time 0h 23m
Altitude 22000
Route SUKAD1G SUKAD DCT PIWAW T159 SPESA SPESA5B
Aircraft A320/M-SDE3FGHIRWY/LB1

Departure

Time 2026-05-04 11:22
Airport Nuremberg Airport (EDDN)

Arrival

Time 2026-05-04 11:45
Airport Frankfurt Main Airport (EDDF)
Time Latitude Longitude Altitude Speed Heading
2026-05-04 10:51 49.49529 11.07660 1028 ft 0 kts 188°
2026-05-04 11:08 49.49557 11.07669 1028 ft 4 kts 200°
2026-05-04 11:10 49.49540 11.07663 1026 ft 4 kts 191°
2026-05-04 11:12 49.49529 11.07660 1027 ft 0 kts 188°
2026-05-04 11:14 49.49550 11.07663 1024 ft 4 kts 178°
2026-05-04 11:16 49.49602 11.07608 1030 ft 0 kts 99°
2026-05-04 11:19 49.49538 11.08313 1035 ft 9 kts 77°
2026-05-04 11:19 49.49575 11.08351 1036 ft 6 kts 11°
2026-05-04 11:19 49.49615 11.08405 1036 ft 11 kts 74°
2026-05-04 11:19 49.49605 11.08536 1039 ft 12 kts 98°
2026-05-04 11:20 49.49588 11.08715 1042 ft 20 kts 99°
2026-05-04 11:20 49.49567 11.08912 1045 ft 18 kts 98°
2026-05-04 11:20 49.49544 11.09144 1048 ft 27 kts 99°
2026-05-04 11:20 49.49540 11.09368 1054 ft 15 kts 66°
2026-05-04 11:22 49.50267 11.03910 2269 ft 164 kts 278°
2026-05-04 11:22 49.50440 11.02088 2734 ft 181 kts 278°
2026-05-04 11:23 49.50637 11.00033 3047 ft 206 kts 278°
2026-05-04 11:23 49.50854 10.97762 3438 ft 230 kts 278°
2026-05-04 11:24 49.52476 10.80960 8129 ft 282 kts 277°
2026-05-04 11:25 49.52762 10.77967 9112 ft 281 kts 276°
2026-05-04 11:25 49.53044 10.74978 10065 ft 283 kts 275°
2026-05-04 11:25 49.53336 10.71890 10520 ft 300 kts 275°
2026-05-04 11:26 49.53966 10.65123 11227 ft 335 kts 276°
2026-05-04 11:27 49.60665 10.41300 16011 ft 371 kts 302°
2026-05-04 11:28 49.62180 10.38038 16645 ft 374 kts 302°
2026-05-04 11:28 49.63698 10.34757 17247 ft 378 kts 302°
2026-05-04 11:28 49.65226 10.31442 17859 ft 381 kts 302°
2026-05-04 11:28 49.66771 10.28081 18470 ft 384 kts 302°
2026-05-04 11:29 49.68312 10.24732 19011 ft 387 kts 302°
2026-05-04 11:29 49.69883 10.21319 19157 ft 390 kts 302°
2026-05-04 11:29 49.71436 10.17949 19035 ft 387 kts 302°
2026-05-04 11:29 49.72994 10.14564 19024 ft 387 kts 302°
2026-05-04 11:31 49.81370 9.90555 18592 ft 372 kts 290°
2026-05-04 11:33 49.88472 9.65475 14831 ft 362 kts 290°
2026-05-04 11:33 49.89482 9.61893 14350 ft 361 kts 290°
2026-05-04 11:33 49.90489 9.58325 13865 ft 360 kts 290°
2026-05-04 11:34 49.91490 9.54769 13359 ft 358 kts 290°
2026-05-04 11:34 49.92474 9.51272 12869 ft 344 kts 290°
2026-05-04 11:34 49.93394 9.47990 12429 ft 329 kts 290°
2026-05-04 11:34 49.94289 9.44799 11998 ft 315 kts 290°
2026-05-04 11:35 49.95147 9.41731 11581 ft 303 kts 289°
2026-05-04 11:35 49.95982 9.38723 11176 ft 303 kts 289°
2026-05-04 11:35 49.96805 9.35751 10786 ft 295 kts 289°
2026-05-04 11:35 49.97613 9.32836 10401 ft 294 kts 289°
2026-05-04 11:36 49.98555 9.29997 10007 ft 299 kts 301°
2026-05-04 11:36 49.99813 9.27430 9706 ft 297 kts 305°
2026-05-04 11:36 50.01092 9.24945 9411 ft 293 kts 305°
2026-05-04 11:36 50.02367 9.22482 9081 ft 291 kts 305°
2026-05-04 11:37 50.03638 9.20025 8696 ft 289 kts 305°
2026-05-04 11:37 50.04879 9.17622 8220 ft 287 kts 305°
2026-05-04 11:37 50.06124 9.15206 7748 ft 284 kts 304°
2026-05-04 11:37 50.07373 9.12840 7273 ft 280 kts 305°
2026-05-04 11:38 50.08619 9.10512 6806 ft 278 kts 305°
2026-05-04 11:38 50.09843 9.08233 6455 ft 275 kts 305°
2026-05-04 11:38 50.11009 9.05896 6078 ft 268 kts 294°
2026-05-04 11:38 50.11720 9.03267 5711 ft 262 kts 285°
2026-05-04 11:39 50.12316 9.00598 5328 ft 259 kts 284°
2026-05-04 11:39 50.12769 8.97910 4944 ft 252 kts 270°
2026-05-04 11:40 50.10018 8.84051 3724 ft 181 kts 247°
2026-05-04 11:41 50.09599 8.82271 3504 ft 169 kts 247°
2026-05-04 11:41 50.09197 8.80568 3282 ft 165 kts 246°
2026-05-04 11:41 50.08802 8.78899 3079 ft 166 kts 247°
2026-05-04 11:41 50.08400 8.77196 2828 ft 166 kts 246°
2026-05-04 11:42 50.08006 8.75527 2611 ft 167 kts 247°
2026-05-04 11:42 50.07698 8.73810 2328 ft 160 kts 255°
2026-05-04 11:42 50.07472 8.72152 1958 ft 150 kts 256°
2026-05-04 11:42 50.07278 8.70611 1717 ft 141 kts 257°
2026-05-04 11:43 50.07018 8.69159 1577 ft 139 kts 250°
2026-05-04 11:43 50.06706 8.67748 1435 ft 135 kts 247°
2026-05-04 11:43 50.06364 8.66378 1287 ft 137 kts 247°
2026-05-04 11:43 50.06007 8.65019 1038 ft 136 kts 246°
2026-05-04 11:44 50.05706 8.63630 927 ft 135 kts 249°
2026-05-04 11:44 50.05399 8.62239 805 ft 136 kts 244°
2026-05-04 11:44 50.05023 8.60854 664 ft 137 kts 247°
2026-05-04 11:44 50.04797 8.59750 652 ft 137 kts 251°
2026-05-04 11:45 50.04428 8.58354 420 ft 138 kts 246°
2026-05-04 11:45 50.04132 8.57113 365 ft 98 kts 250°
2026-05-04 11:45 50.03996 8.56524 357 ft 29 kts 264°
2026-05-04 11:45 50.04003 8.56260 356 ft 13 kts 278°
2026-05-04 11:46 50.04008 8.56217 357 ft 4 kts 280°
2026-05-04 11:46 50.04024 8.56162 363 ft 5 kts 314°
2026-05-04 11:46 50.04040 8.56148 358 ft 2 kts 333°
2026-05-04 11:46 50.04099 8.56172 362 ft 12 kts 54°
2026-05-04 11:47 50.04129 8.56285 362 ft 11 kts 69°
2026-05-04 11:47 50.04159 8.56408 362 ft 18 kts 69°
2026-05-04 11:47 50.04206 8.56610 360 ft 19 kts 69°
2026-05-04 11:47 50.04257 8.56785 363 ft 15 kts 42°
2026-05-04 11:48 50.04354 8.56829 361 ft 14 kts 10°
2026-05-04 11:48 50.04445 8.56853 365 ft 13 kts 11°
2026-05-04 11:48 50.04550 8.56891 361 ft 17 kts 13°
2026-05-04 11:48 50.04659 8.56939 365 ft 15 kts 24°
2026-05-04 11:49 50.04752 8.57002 366 ft 14 kts 12°
2026-05-04 11:49 50.04795 8.56941 362 ft 8 kts 289°
2026-05-04 11:49 50.04805 8.56905 363 ft 0 kts 294°
2026-05-04 11:49 50.04805 8.56904 363 ft 0 kts 294°